{"data":{"norad_id":62453,"epoch":"2026-05-24T22:17:55.610304Z","epoch_age_seconds":80899,"freshness":"FRESH","line1":"1 62453U 24251X   26144.92911586  .00011525  00000+0  40055-3 0  9992","line2":"2 62453  53.1615 340.9900 0000656  96.6901 263.4175 15.30205228 79244","mean_motion":15.30205228,"eccentricity":6.56e-5,"inclination_deg":53.1615,"raan_deg":340.99,"arg_perigee_deg":96.6901,"mean_anomaly_deg":263.4175,"bstar":0.00040055,"rev_number":7924,"period_min":94.105024192219,"perigee_km":474.74988072637,"apogee_km":475.64903846987,"semimajor_km":6853.3364595981,"source":"CELESTRAK","updated_at":"2026-05-25T13:38:19.688471Z"}}